TimeCDT,TemperatureF,Dew PointF,Humidity,Sea Level PressureIn,VisibilityMPH,Wind Direction,Wind SpeedMPH,Gust SpeedMPH,PrecipitationIn,Events,Conditions,WindDirDegrees,DateUTC
12:53 AM,54.0,46.9,77,29.92,10.0,South,3.5,-,N/A,,Clear,180,2013-03-17 05:53:00
1:53 AM,55.9,45.0,67,29.91,10.0,SSW,4.6,-,N/A,,Clear,210,2013-03-17 06:53:00
2:53 AM,57.0,46.0,67,29.91,10.0,SW,4.6,-,N/A,,Clear,220,2013-03-17 07:53:00
3:53 AM,59.0,48.0,67,29.90,10.0,SW,6.9,-,N/A,,Clear,220,2013-03-17 08:53:00
4:53 AM,59.0,48.9,69,29.90,10.0,SSW,6.9,-,N/A,,Clear,200,2013-03-17 09:53:00
5:53 AM,57.0,48.0,72,29.93,10.0,South,4.6,-,N/A,,Clear,190,2013-03-17 10:53:00
6:53 AM,55.0,48.0,77,29.94,10.0,SSW,5.8,-,N/A,,Clear,210,2013-03-17 11:53:00
7:53 AM,57.9,50.0,75,29.95,10.0,South,3.5,-,N/A,,Clear,190,2013-03-17 12:53:00
8:53 AM,62.1,52.0,70,29.96,10.0,SSW,5.8,-,N/A,,Partly Cloudy,200,2013-03-17 13:53:00
9:53 AM,64.9,53.1,65,29.96,10.0,WSW,9.2,-,N/A,,Scattered Clouds,250,2013-03-17 14:53:00
10:53 AM,66.9,53.1,61,29.94,10.0,SW,11.5,-,N/A,,Clear,230,2013-03-17 15:53:00
11:53 AM,70.0,51.1,51,29.93,10.0,SW,9.2,-,N/A,,Scattered Clouds,230,2013-03-17 16:53:00
12:53 PM,73.0,48.9,42,29.90,10.0,WSW,10.4,-,N/A,,Scattered Clouds,250,2013-03-17 17:53:00
1:53 PM,73.0,48.9,42,29.88,10.0,SSW,15.0,20.7,N/A,,Mostly Cloudy,210,2013-03-17 18:53:00
2:53 PM,73.0,48.9,42,29.85,10.0,SSW,13.8,-,N/A,,Clear,200,2013-03-17 19:53:00
3:53 PM,73.0,45.0,37,29.83,10.0,South,12.7,-,N/A,,Clear,190,2013-03-17 20:53:00
4:53 PM,73.0,46.0,38,29.82,10.0,SSW,15.0,20.7,N/A,,Clear,200,2013-03-17 21:53:00
5:53 PM,72.0,45.0,38,29.82,10.0,SSW,15.0,20.7,N/A,,Clear,210,2013-03-17 22:53:00
6:53 PM,66.9,48.0,51,29.83,10.0,South,10.4,-,N/A,,Clear,180,2013-03-17 23:53:00
7:53 PM,62.1,48.9,62,29.83,10.0,South,5.8,-,N/A,,Clear,170,2013-03-18 00:53:00
8:53 PM,60.1,48.9,67,29.84,10.0,SSE,4.6,-,N/A,,Partly Cloudy,150,2013-03-18 01:53:00
9:53 PM,63.0,50.0,63,29.83,10.0,SSE,8.1,-,N/A,,Overcast,150,2013-03-18 02:53:00
10:53 PM,63.0,51.1,65,29.82,10.0,SSE,5.8,-,N/A,,Overcast,160,2013-03-18 03:53:00
11:53 PM,64.9,54.0,68,29.80,10.0,South,15.0,26.5,N/A,,Scattered Clouds,180,2013-03-18 04:53:00